Weather in Mordysh

Russia / Vladimir Oblast     56°18′38″N   40°36′44″E
temp.,
°C
wind,
m/s
gust,
m/s
humid.,
%
clouds,
%
prec.,
mm/h
press.,
hPa
HPBL,
m
23 october, sat
sat2300:00+6wsw613695 0.0 1001829
03:00+5sw61374100 0.0 1002734
06:00+5sw61376100 0.0 1002746
09:00+6sw6117495 0.0 1003973
12:00+7wsw7106597 0.0 10041189
15:00+7sw6107098 0.0 10051122
18:00+6sw6127475 0.2 1006674
21:00+4sw512805 0.3 1007478
24 october, sun
sun2400:00+3wsw411878 0.0 1008375
03:00+2wsw4109424 0.0 1008348
06:00+4sw4885100 0.0 1008424
09:00+4wsw5988100 0.4 1009787
12:00+3wsw61094100 0.3 1010697
15:00+3w5996100 0.8 1010616
18:00+1nw61396100 0.8 1013614
21:00+1nnw7128989 1.1 1016868
25 october, mon
mon2500:000n81272100 0.1 10191039
03:00−2nnw613856 0.1 1022627
06:00−2nnw511875 0.0 1024434
09:00−1nnw49805 0.0 1026419
12:00+2nnw355916 0.0 1027719
15:00+2wnw355995 0.0 1027757
18:000sw3772100 0.0 1027167
21:000sw51170100 0.0 1027401
26 october, tue
tue2600:000sw5137181 0.0 1025414
03:000sw6137578 0.0 1024406
06:00−1sw61383100 0.0 1023376
09:00+1sw61477100 0.0 1023439
12:00+4wsw61366100 0.0 1021563
15:00+5wsw6136497 0.0 1020637
18:00+3sw61469100 0.0 1020503
21:00+3sw6147295 0.0 1019454
27 october, wed
wed2700:00+1sw51378100 0.0 1019380
03:00+1sw51281100 0.0 1018363
06:00+1sw51280100 0.0 1017392
09:00+3sw61274100 0.0 1016465
12:00+5sw61266100 0.0 1014593
15:00+5wsw61167100 0.0 1013690
18:00+3wsw51092100 0.8 1013436
21:00+3wsw4994100 2.3 1013432